#timestamp,LO_Frequency,Hit,StdDev 
1629752415.2,286047000.9,N
1629752435.0,286047002.3,N
1629752435.9,286047002.3,N
1629752455.8,286047004.4,Y
1629752475.6,286047001.3,P
1629752495.5,286047004.4,P
1629752515.3,286047001.9,N
1629752535.1,286047002.3,N
1629752555.9,286047002.3,N
1629752575.7,286047002.6,N
1629752595.5,286047000.0,N
1629752615.4,286047001.9,N
1629752635.2,286047002.0,N
1629752655.1,286047002.0,N
1629752656.0,286047002.0,N
1629752675.8,286047003.8,Y
1629752695.7,286047000.5,P
1629752715.5,286046998.7,N
1629752735.3,286046998.5,N
1629752755.2,286046998.4,N
1629752775.9,286046998.7,N
1629752795.7,286046998.5,N
1629752815.6,286047000.3,N
1629752835.4,286047000.4,N
1629752855.2,286047000.5,N
1629752875.1,286047002.4,N
1629752876.0,286047002.4,N
1629752895.8,286047002.3,N
1629752915.7,286047000.6,N
1629752935.5,286047001.0,N
1629752955.3,286047000.0,N
1629752975.2,286046999.9,N
1629752995.0,286047002.4,N
1629752995.9,286047002.4,N
1629753015.8,286046999.9,N
1629753035.6,286047000.5,N
1629753055.4,286047000.7,N
1629753075.3,286047000.7,N
1629753095.1,286046999.9,N
1629753115.9,286046999.9,N
1629753135.7,286047000.4,N
1629753155.5,286046999.9,N
1629753175.4,286046999.9,N
1629753195.2,286047002.6,N
1629753215.0,286046999.7,N
1629753215.9,286046999.7,N
1629753235.8,286047000.6,N
1629753255.6,286047002.5,N
1629753275.5,286047002.1,N
1629753295.3,286047002.8,N
1629753315.1,286046999.7,N
1629753335.9,286047001.0,N
1629753355.7,286047001.1,N
1629753375.5,286047000.7,N
1629753395.4,286046998.8,N
1629753415.2,286046998.7,N
1629753435.1,286047000.6,N
1629753436.0,286047000.6,N
1629753455.8,286046999.8,N
1629753475.6,286046998.2,N
1629753495.5,286047001.0,N
1629753515.3,286047000.3,N
1629753535.1,286047002.7,N
1629753555.9,286047002.4,N
1629753575.7,286047001.6,N
1629753595.6,286047007.1,Y
1629753615.4,286047005.2,P
1629753635.2,286047004.1,N
1629753655.1,286047003.6,N
1629753656.0,286047003.6,N
1629753675.8,286047006.0,Y
1629753695.6,286047002.3,P
1629753715.5,286047002.3,P
1629753735.3,286047001.6,N
1629753755.2,286047003.0,Y
1629753775.9,286047002.3,P
1629753795.7,286047001.3,P
1629753815.6,286047004.0,P
1629753835.4,286047004.0,Y
1629753855.2,286047000.9,P
1629753875.1,286047000.6,N
1629753876.0,286047000.6,N
1629753895.8,286047002.6,Y
1629753915.7,286047002.7,P
1629753935.5,286047000.1,N
1629753955.3,286047001.5,N
1629753975.2,286047003.7,Y
1629753995.0,286047004.4,P
1629753995.9,286047004.4,N
1629754015.8,286047003.0,N
1629754035.6,286047003.0,N
1629754055.5,286047003.0,N
1629754075.3,286047005.7,Y
1629754095.1,286047004.4,P
1629754115.9,286047001.5,N
1629754135.7,286047000.4,N
1629754155.5,286046999.8,N
1629754175.4,286047000.7,N
1629754195.2,286047000.0,N
1629754215.1,286047001.9,N
1629754216.0,286047001.9,N
1629754235.8,286047003.9,N
1629754255.6,286046999.9,N
1629754275.5,286047000.9,N
1629754295.3,286047000.7,N
1629754315.1,286047001.1,N
1629754335.9,286047000.2,N
1629754355.7,286047000.8,N
1629754375.6,286047000.4,N
1629754395.4,286047000.1,N
1629754415.2,286046999.7,N
1629754435.1,286047000.3,N
1629754436.0,286047000.3,N
1629754455.8,286047002.8,N
1629754475.6,286047003.9,N
1629754495.5,286047002.7,N
1629754515.3,286047004.4,Y
1629754535.2,286047000.2,P
1629754555.9,286047000.0,N
1629754575.7,286047000.1,N
1629754595.6,286047002.6,Y
1629754615.4,286047000.0,P
1629754635.2,286047000.5,N
1629754655.1,286047001.9,P
1629754656.0,286047001.9,N
1629754675.8,286047001.5,N
1629754695.7,286047001.4,N
1629754715.5,286047004.0,Y
1629754735.3,286047002.0,P
1629754755.2,286046999.9,N
1629754775.0,286046999.8,N
1629754775.9,286046999.8,N
1629754795.7,286047002.1,N
1629754815.6,286047002.5,N
1629754835.4,286046999.8,N
1629754855.3,286046999.7,N
1629754875.1,286047000.6,N
1629754876.0,286047000.6,N
1629754895.8,286047000.4,N
1629754915.7,286047000.8,N
1629754935.5,286047000.2,N
1629754955.3,286047000.6,N
1629754975.2,286047000.3,N
1629754995.0,286047001.2,N
1629754995.9,286047001.2,N
1629755015.8,286047000.3,N
1629755035.6,286047000.4,N
1629755055.4,286047002.4,Y
1629755075.3,286047000.0,P
1629755095.1,286047002.4,P
1629755115.9,286047004.3,P
1629755135.7,286047002.0,N
1629755155.5,286047001.8,N
1629755175.4,286046999.8,N
1629755195.2,286046999.7,N
1629755215.1,286047002.2,N
1629755216.0,286047002.2,N
1629755235.8,286047002.5,N
1629755255.6,286047002.2,N
1629755275.5,286047002.7,N
1629755295.3,286047002.3,N
1629755315.1,286047000.1,N
1629755335.9,286047001.2,N
1629755355.7,286047001.2,N
1629755375.6,286047000.8,N
1629755395.4,286047000.3,N
1629755415.2,286047001.0,N
1629755435.1,286047000.7,N
1629755436.0,286047000.7,N
1629755455.8,286046999.4,N
1629755475.7,286046996.6,N
1629755495.5,286046998.9,N
1629755515.3,286046997.5,N
1629755535.2,286046998.9,N
1629755555.0,286046998.8,N
1629755555.9,286046998.8,N
1629755575.7,286046998.9,N
1629755595.6,286046997.8,N
1629755615.4,286046994.9,N
1629755635.3,286046997.5,N
1629755655.1,286046997.8,N
1629755656.0,286046997.8,N
1629755675.8,286046997.6,N
1629755695.7,286046996.8,N
1629755715.5,286046996.8,N
1629755735.3,286046995.0,N
1629755755.2,286046996.1,N
1629755775.0,286046997.4,N
1629755775.9,286046997.4,N
1629755795.8,286046994.9,N
1629755815.6,286046998.0,N
1629755835.4,286046993.8,Y
1629755855.3,286046995.2,P
1629755875.1,286046993.7,P
1629755895.8,286046995.4,N
1629755915.7,286046995.7,N
1629755935.5,286046997.9,N
1629755955.4,286046996.3,N
1629755975.2,286046995.8,N
1629755995.0,286046995.8,Y
1629755995.9,286046995.8,P
